20060712,000020,432000,30.310718,-123.925541,26.3,18.845,33.197,44.592,742.90,0.0,1.103,18.616, NaN, NaN,23.682,   NaN,17.93,1015.48,85.00,17.95,25.2,22.5,14.7,12.7,1.9,0.8,10.6,8.6,NaN, NaN,21.0,325.2,323.6,1152662420,1152662420,2,8.9,000020,000020,325.6,30.310640,-123.925511,9.26,NaN,NaN,18.850, NaN,NaN,NaN, NaN, NaN
20060712,000050,432029,30.311753,-123.926440,26.0,18.846,33.198,44.594,750.22,0.0,1.103,18.614, NaN, NaN,23.683,   NaN,17.98,1015.67,85.10,17.98,24.2,21.5,14.8,13.2,0.3,358.3,10.8,9.0,NaN, NaN,21.0,326.5,323.9,1152662450,1152662450,2,9.5,000050,000050,326.5,30.311678,-123.926411,9.65,NaN,NaN,18.851, NaN,NaN,NaN, NaN, NaN
20060712,000120,432059,30.312805,-123.927333,26.4,18.842,33.200,44.593,738.17,0.0,1.103,18.614, NaN, NaN,23.686,   NaN,17.95,1015.59,85.19,17.95,26.6,23.5,14.3,12.8,4.4,2.0,10.3,8.7,NaN, NaN,20.0,325.2,322.9,1152662480,1152662480,2,9.3,000080,000080,325.8,30.312727,-123.927300,9.62,NaN,NaN,18.847, NaN,NaN,NaN, NaN, NaN
20060712,000150,432089,30.313860,-123.928210,26.3,18.843,33.199,44.592,712.52,0.0,1.103,18.614, NaN, NaN,23.685,   NaN,17.91,1015.61,85.05,17.91,26.2,24.1,14.3,12.6,4.2,3.5,10.3,8.4,NaN, NaN,20.0,325.8,330.2,1152662510,1152662510,2,9.1,000110,000110,324.5,30.313790,-123.928176,9.78,NaN,NaN,18.848, NaN,NaN,NaN, NaN, NaN
20060712,000220,432120,30.314828,-123.929065,25.4,18.840,33.200,44.591,707.13,0.0,1.122,18.611, NaN, NaN,23.686,   NaN,17.92,1015.57,84.73,17.92,27.1,25.3,14.1,11.7,5.2,6.7,10.2,7.7,NaN, NaN,20.0,326.0,326.7,1152662540,1152662539,2,8.4,000140,000139,325.9,30.314713,-123.929003,8.87,NaN,NaN,18.845, NaN,NaN,NaN, NaN, NaN
20060712,000250,432150,30.315840,-123.929918,26.1,18.842,33.197,44.589,716.08,0.0,1.122,18.611, NaN, NaN,23.683,   NaN,17.96,1015.66,84.60,17.96,26.7,25.0,13.9,11.5,4.3,6.1,10.1,7.6,NaN, NaN,20.0,326.3,328.4,1152662570,1152662569,2,8.8,000170,000169,325.7,30.315725,-123.929861,9.27,NaN,NaN,18.847, NaN,NaN,NaN, NaN, NaN
20060712,000320,432179,30.316882,-123.930810,26.5,18.841,33.184,44.573,734.39,0.0,1.215,18.610, NaN, NaN,23.673,   NaN,17.92,1015.53,84.27,17.91,26.2,24.6,14.3,12.0,3.8,4.8,10.3,8.0,NaN, NaN,20.0,326.0,330.7,1152662600,1152662600,2,9.1,000200,000200,325.4,30.316803,-123.930778,9.65,NaN,NaN,18.846, NaN,NaN,NaN, NaN, NaN
20060712,000350,432209,30.317920,-123.931713,26.3,18.837,33.199,44.587,757.36,0.0,1.122,18.607, NaN, NaN,23.686,   NaN,17.87,1015.60,83.99,17.89,31.4,27.8,14.1,11.0,11.5,13.0,10.3,7.1,NaN, NaN,20.0,326.9,318.6,1152662630,1152662629,2,9.2,000230,000229,326.9,30.317803,-123.931655,9.41,NaN,NaN,18.842, NaN,NaN,NaN, NaN, NaN
20060712,000420,432239,30.318972,-123.932613,26.1,18.836,33.198,44.585,781.52,0.0,1.140,18.607, NaN, NaN,23.686,   NaN,17.97,1015.62,84.40,17.97,35.0,29.8,12.5,9.3,19.6,21.3,9.0,5.7,NaN, NaN,20.0,325.7,323.0,1152662660,1152662660,2,9.4,000260,000260,326.0,30.318892,-123.932576,9.56,NaN,NaN,18.841, NaN,NaN,NaN, NaN, NaN
20060712,000450,432269,30.320012,-123.933510,26.4,18.834,33.196,44.581,814.71,0.0,1.140,18.607, NaN, NaN,23.685,   NaN,18.03,1015.74,84.99,18.04,34.1,28.7,11.9,8.8,19.3,21.6,8.4,5.2,NaN, NaN,20.0,325.5,322.8,1152662690,1152662689,2,9.5,000290,000289,326.2,30.319903,-123.933445,9.65,NaN,NaN,18.839, NaN,NaN,NaN, NaN, NaN
20060712,000520,432300,30.321067,-123.934408,26.4,18.834,33.198,44.583,827.42,0.0,1.122,18.605, NaN, NaN,23.686,   NaN,18.00,1015.64,84.90,18.00,30.7,26.4,13.7,10.6,11.7,12.6,9.8,6.7,NaN, NaN,20.0,326.0,325.7,1152662720,1152662719,2,9.3,000320,000319,326.0,30.320953,-123.934351,9.65,NaN,NaN,18.839, NaN,NaN,NaN, NaN, NaN
20060712,000550,432330,30.322107,-123.935301,26.3,18.832,33.199,44.582,827.47,0.0,1.122,18.600, NaN, NaN,23.687,   NaN,17.94,1015.59,84.64,17.95,29.3,25.6,14.4,11.4,8.5,8.4,10.5,7.4,NaN, NaN,20.0,325.9,330.8,1152662750,1152662749,2,8.9,000350,000349,325.9,30.322000,-123.935243,9.73,NaN,NaN,18.837, NaN,NaN,NaN, NaN, NaN
20060712,000620,432359,30.323115,-123.936205,26.2,18.832,33.198,44.581,831.62,0.0,1.122,18.602, NaN, NaN,23.687,   NaN,18.00,1015.54,84.65,18.00,30.0,26.3,13.7,11.2,10.2,9.7,9.8,7.2,NaN, NaN,20.0,326.4,324.0,1152662780,1152662780,2,9.4,000380,000380,326.4,30.323072,-123.936196,9.45,NaN,NaN,18.837, NaN,NaN,NaN, NaN, NaN
20060712,000650,432389,30.324193,-123.937115,25.8,18.831,33.199,44.581,819.85,0.0,1.122,18.600, NaN, NaN,23.687,   NaN,17.96,1015.63,84.27,17.95,27.8,25.1,13.9,12.0,7.0,6.2,9.9,7.9,NaN, NaN,20.0,325.2,325.0,1152662810,1152662810,2,9.2,000410,000410,325.2,30.324118,-123.937081,9.43,NaN,NaN,18.836, NaN,NaN,NaN, NaN, NaN
20060712,000720,432419,30.325210,-123.938013,25.9,18.830,33.198,44.579,808.08,0.0,1.103,18.598, NaN, NaN,23.687,   NaN,17.92,1015.72,83.87,17.91,28.8,25.7,14.0,11.6,8.1,7.6,10.1,7.6,NaN, NaN,20.0,326.0,319.4,1152662840,1152662840,2,9.0,000440,000440,326.0,30.325127,-123.937983,9.15,NaN,NaN,18.835, NaN,NaN,NaN, NaN, NaN
20060712,000750,432449,30.326238,-123.938896,26.5,18.830,33.197,44.579,799.87,0.0,1.122,18.598, NaN, NaN,23.687,   NaN,17.99,1015.63,83.93,17.99,31.2,26.8,13.0,10.9,12.3,10.3,9.3,7.0,NaN, NaN,20.0,325.5,322.9,1152662870,1152662870,2,9.4,000470,000470,325.5,30.326167,-123.938865,9.31,NaN,NaN,18.835, NaN,NaN,NaN, NaN, NaN
20060712,000820,432480,30.327277,-123.939813,26.0,18.829,33.197,44.577,797.05,0.0,1.140,18.596, NaN, NaN,23.686,   NaN,17.98,1015.65,83.88,17.98,30.2,26.1,13.3,11.2,10.9,8.9,9.6,7.2,NaN, NaN,21.0,326.9,323.2,1152662900,1152662900,2,9.2,000500,000500,326.9,30.327205,-123.939778,9.44,NaN,NaN,18.834, NaN,NaN,NaN, NaN, NaN
20060712,000850,432509,30.328305,-123.940685,25.4,18.826,33.196,44.574,799.14,0.0,1.103,18.593, NaN, NaN,23.687,   NaN,17.97,1015.61,83.97,17.97,29.6,26.8,14.2,11.1,8.8,10.3,10.3,7.2,NaN, NaN,20.0,324.5,319.5,1152662930,1152662930,2,9.3,000530,000530,324.5,30.328225,-123.940653,9.55,NaN,NaN,18.831, NaN,NaN,NaN, NaN, NaN
20060712,000920,432539,30.329310,-123.941566,26.2,18.828,33.195,44.574,809.78,0.0,1.122,18.593, NaN, NaN,23.686,   NaN,17.99,1015.76,84.04,17.99,28.6,26.7,13.6,10.8,7.9,10.7,9.7,6.9,NaN, NaN,20.0,325.7,322.0,1152662960,1152662959,2,9.5,000560,000559,325.7,30.329200,-123.941510,9.52,NaN,NaN,18.833, NaN,NaN,NaN, NaN, NaN
20060712,000950,432569,30.330347,-123.942458,26.5,18.827,33.193,44.571,819.82,0.0,1.140,18.593, NaN, NaN,23.684,   NaN,17.98,1015.54,83.99,17.98,26.4,24.4,13.5,11.6,5.0,5.5,9.6,7.6,NaN, NaN,20.0,326.5,326.9,1152662990,1152662990,2,9.0,000590,000590,326.2,30.330277,-123.942436,9.70,NaN,NaN,18.832, NaN,NaN,NaN, NaN, NaN
20060712,001020,432599,30.331388,-123.943353,25.9,18.823,33.196,44.570,826.26,0.0,1.122,18.592, NaN, NaN,23.687,   NaN,17.98,1015.71,83.75,17.98,25.4,22.5,14.5,12.7,2.7,0.8,10.4,8.5,NaN, NaN,21.0,324.8,323.8,1152663020,1152663020,2,8.5,000620,000620,324.4,30.331313,-123.943326,9.59,NaN,NaN,18.828, NaN,NaN,NaN, NaN, NaN
20060712,001050,432630,30.332377,-123.944251,25.9,18.822,33.198,44.572,826.33,0.0,1.122,18.591, NaN, NaN,23.689,   NaN,17.94,1015.69,83.20,17.94,25.8,22.8,14.6,12.7,2.7,0.8,10.5,8.6,NaN, NaN,21.0,326.3,318.3,1152663050,1152663050,2,8.9,000650,000650,326.5,30.332302,-123.944225,9.16,NaN,NaN,18.827, NaN,NaN,NaN, NaN, NaN
20060712,001120,432660,30.333422,-123.945135,26.1,18.821,33.194,44.565,809.86,0.0,1.122,18.589, NaN, NaN,23.686,   NaN,17.88,1015.75,82.62,17.89,27.3,24.5,14.0,12.2,5.2,3.9,10.1,8.2,NaN, NaN,21.0,325.4,320.9,1152663080,1152663080,2,9.6,000680,000680,324.8,30.333342,-123.945108,9.46,NaN,NaN,18.826, NaN,NaN,NaN, NaN, NaN
20060712,001150,432689,30.334447,-123.946020,26.2,18.821,33.189,44.559,785.70,0.0,1.122,18.589, NaN, NaN,23.682,   NaN,17.87,1015.65,82.40,17.88,28.2,24.8,13.7,11.7,7.3,6.2,9.8,7.6,NaN, NaN,21.0,326.2,327.0,1152663110,1152663110,2,9.2,000710,000710,326.0,30.334367,-123.945996,9.62,NaN,NaN,18.826, NaN,NaN,NaN, NaN, NaN
20060712,001220,432719,30.335517,-123.946916,26.1,18.819,33.184,44.552,767.46,0.0,1.122,18.588, NaN, NaN,23.679,   NaN,17.91,1015.71,82.59,17.91,26.8,24.0,13.2,11.3,6.6,6.4,9.2,7.2,NaN, NaN,21.0,326.0,324.5,1152663140,1152663140,2,8.9,000740,000740,325.7,30.335433,-123.946896,9.79,NaN,NaN,18.824, NaN,NaN,NaN, NaN, NaN
20060712,001250,432749,30.336577,-123.947843,26.4,18.817,33.191,44.558,764.20,0.0,1.122,18.584, NaN, NaN,23.685,   NaN,17.91,1015.80,82.65,17.89,26.8,23.9,13.1,11.2,6.9,6.6,9.0,7.0,NaN, NaN,21.0,324.9,320.7,1152663170,1152663170,2,9.6,000770,000770,324.9,30.336500,-123.947826,9.96,NaN,NaN,18.822, NaN,NaN,NaN, NaN, NaN
20060712,001320,432779,30.337632,-123.948735,26.1,18.814,33.191,44.555,771.05,0.0,1.140,18.582, NaN, NaN,23.686,   NaN,17.91,1015.69,82.80,17.91,26.9,24.2,13.0,11.0,7.1,7.1,9.0,6.9,NaN, NaN,21.0,325.8,327.3,1152663200,1152663200,2,8.9,000800,000800,325.4,30.337550,-123.948715,9.36,NaN,NaN,18.819, NaN,NaN,NaN, NaN, NaN
20060712,001350,432810,30.338673,-123.949646,26.2,18.812,33.192,44.555,779.63,0.0,1.122,18.583, NaN, NaN,23.687,   NaN,17.87,1015.74,82.96,17.89,26.6,24.0,13.3,11.5,6.1,5.6,9.3,7.3,NaN, NaN,21.0,325.7,321.5,1152663230,1152663230,2,9.9,000830,000830,326.0,30.338590,-123.949625,9.61,NaN,NaN,18.817, NaN,NaN,NaN, NaN, NaN
20060712,001420,432840,30.339737,-123.950535,26.3,18.810,33.193,44.554,764.76,0.0,1.140,18.580, NaN, NaN,23.688,   NaN,17.90,1015.78,83.12,17.91,25.4,23.3,13.9,12.1,4.0,3.6,9.8,8.0,NaN, NaN,20.0,331.3,332.6,1152663260,1152663260,2,9.3,000860,000860,331.6,30.339650,-123.950528,9.69,NaN,NaN,18.815, NaN,NaN,NaN, NaN, NaN
20060712,001450,432869,30.340842,-123.951276,26.0,18.807,33.193,44.551,742.93,0.0,1.140,18.577, NaN, NaN,23.689,   NaN,17.82,1015.65,82.81,17.82,23.0,20.9,14.2,12.6,3.8,2.8,9.9,8.3,NaN, NaN,20.0,333.4,329.3,1152663290,1152663290,2,9.4,000890,000890,332.9,30.340755,-123.951270,9.48,NaN,NaN,18.812, NaN,NaN,NaN, NaN, NaN
20060712,001520,432899,30.341950,-123.952038,26.1,18.805,33.194,44.550,723.71,0.0,1.103,18.576, NaN, NaN,23.690,   NaN,17.84,1015.61,82.86,17.84,22.3,19.3,13.9,12.8,5.5,2.5,9.7,8.5,NaN, NaN,20.0,331.5,322.3,1152663320,1152663320,2,9.6,000920,000920,331.7,30.341868,-123.952028,9.60,NaN,NaN,18.810, NaN,NaN,NaN, NaN, NaN
20060712,001550,432929,30.343063,-123.952771,26.1,18.803,33.192,44.547,709.12,0.0,1.122,18.573, NaN, NaN,23.690,   NaN,17.95,1015.85,83.20,17.95,22.8,20.2,13.6,12.3,6.2,4.2,9.4,8.0,NaN, NaN,20.0,332.4,336.8,1152663350,1152663350,2,9.6,000950,000950,331.3,30.342987,-123.952755,9.10,NaN,NaN,18.808, NaN,NaN,NaN, NaN, NaN
20060712,001620,432959,30.344165,-123.953546,26.0,18.802,33.195,44.549,697.12,0.0,1.122,18.569, NaN, NaN,23.692,   NaN,17.98,1015.83,83.68,17.98,24.1,21.9,13.2,11.3,8.4,8.6,9.1,7.1,NaN, NaN,20.0,331.5,329.6,1152663380,1152663380,2,9.6,000980,000980,331.5,30.344085,-123.953528,9.67,NaN,NaN,18.807, NaN,NaN,NaN, NaN, NaN
20060712,001650,432990,30.345295,-123.954323,26.2,18.803,33.192,44.547,691.52,0.0,1.159,18.569, NaN, NaN,23.690,   NaN,17.93,1015.58,83.72,17.93,25.5,23.0,13.1,11.3,10.6,10.1,9.0,7.2,NaN, NaN,20.0,332.0,326.9,1152663410,1152663410,2,9.4,001010,001010,332.0,30.345215,-123.954306,9.57,NaN,NaN,18.808, NaN,NaN,NaN, NaN, NaN
20060712,001720,433019,30.346403,-123.955088,26.1,18.803,33.192,44.546,687.59,0.0,1.122,18.570, NaN, NaN,23.690,   NaN,17.91,1015.68,83.69,17.91,26.2,23.2,13.3,11.6,11.4,9.9,9.2,7.4,NaN, NaN,20.0,331.0,325.9,1152663440,1152663440,2,9.1,001040,001040,331.0,30.346320,-123.955073,9.42,NaN,NaN,18.808, NaN,NaN,NaN, NaN, NaN
20060712,001750,433049,30.347500,-123.955870,26.0,18.801,33.193,44.546,681.32,0.0,1.140,18.571, NaN, NaN,23.691,   NaN,17.85,1015.70,83.36,17.85,27.0,23.9,13.6,11.7,12.0,10.5,9.6,7.6,NaN, NaN,21.0,331.9,323.0,1152663470,1152663470,2,9.4,001070,001070,331.9,30.347420,-123.955855,9.56,NaN,NaN,18.806, NaN,NaN,NaN, NaN, NaN
20060712,001820,433079,30.348580,-123.956628,26.3,18.801,33.193,44.545,682.36,0.0,1.140,18.569, NaN, NaN,23.691,   NaN,17.85,1015.48,83.39,17.86,27.8,24.8,13.4,11.6,13.0,11.8,9.5,7.6,NaN, NaN,21.0,331.9,332.7,1152663500,1152663500,2,9.3,001100,001100,331.9,30.348498,-123.956608,9.28,NaN,NaN,18.806, NaN,NaN,NaN, NaN, NaN
20060712,001850,433109,30.349693,-123.957388,26.3,18.801,33.191,44.544,690.81,0.0,1.140,18.569, NaN, NaN,23.689,   NaN,17.92,1015.58,83.42,17.92,29.0,26.0,13.4,11.0,15.1,15.2,9.6,7.1,NaN, NaN,21.0,332.4,331.0,1152663530,1152663530,2,10.0,001130,001130,332.4,30.349610,-123.957361,9.70,NaN,NaN,18.806, NaN,NaN,NaN, NaN, NaN
20060712,001920,433140,30.350795,-123.958148,26.1,18.799,33.191,44.542,687.34,0.0,1.140,18.568, NaN, NaN,23.690,   NaN,17.85,1015.61,83.30,17.85,30.2,26.6,14.0,11.2,16.4,16.0,10.2,7.3,NaN, NaN,21.0,331.9,330.0,1152663560,1152663560,2,9.5,001160,001160,331.9,30.350717,-123.958121,9.60,NaN,NaN,18.804, NaN,NaN,NaN, NaN, NaN
20060712,001950,433170,30.351913,-123.958950,26.0,18.797,33.193,44.542,680.02,0.0,1.140,18.566, NaN, NaN,23.692,   NaN,17.83,1015.63,82.91,17.83,31.3,27.4,13.6,11.1,18.2,17.5,9.8,7.2,NaN, NaN,21.0,332.9,329.2,1152663590,1152663590,2,9.2,001190,001190,332.9,30.351837,-123.958930,9.57,NaN,NaN,18.802, NaN,NaN,NaN, NaN, NaN
20060712,002020,433199,30.353047,-123.959715,26.2,18.792,33.193,44.536,670.43,0.0,1.140,18.564, NaN, NaN,23.693,   NaN,17.88,1015.57,83.18,17.89,30.2,27.2,13.5,11.2,16.9,17.2,9.6,7.3,NaN, NaN,21.0,331.4,332.6,1152663620,1152663620,2,8.6,001220,001220,331.0,30.352965,-123.959693,9.38,NaN,NaN,18.797, NaN,NaN,NaN, NaN, NaN
20060712,002050,433229,30.354137,-123.960503,26.2,18.790,33.193,44.535,660.09,0.0,1.122,18.562, NaN, NaN,23.694,   NaN,17.83,1015.43,82.88,17.83,30.9,28.2,13.8,10.8,17.4,19.7,10.0,7.0,NaN, NaN,21.0,333.0,329.1,1152663650,1152663650,2,8.9,001250,001250,333.4,30.354058,-123.960485,9.39,NaN,NaN,18.795, NaN,NaN,NaN, NaN, NaN
20060712,002120,433259,30.355268,-123.961261,26.2,18.788,33.193,44.532,658.64,0.0,1.122,18.560, NaN, NaN,23.694,   NaN,17.81,1015.44,82.81,17.82,32.7,29.4,13.5,9.9,20.3,24.1,9.8,6.2,NaN, NaN,21.0,330.7,333.7,1152663680,1152663680,2,9.1,001280,001280,330.5,30.355190,-123.961231,9.40,NaN,NaN,18.793, NaN,NaN,NaN, NaN, NaN
20060712,002150,433289,30.356417,-123.962050,26.1,18.783,33.194,44.529,666.36,0.0,1.140,18.552, NaN, NaN,23.696,   NaN,17.90,1015.63,83.38,17.90,29.8,27.1,13.4,10.5,16.6,19.5,9.5,6.6,NaN, NaN,21.0,331.9,330.6,1152663710,1152663710,2,9.7,001310,001310,331.9,30.356330,-123.962030,9.64,NaN,NaN,18.788, NaN,NaN,NaN, NaN, NaN
20060712,002220,433320,30.357518,-123.962831,26.5,18.783,33.192,44.527,668.84,0.0,1.122,18.550, NaN, NaN,23.695,   NaN,17.95,1015.24,83.91,17.95,28.4,26.1,13.3,10.5,14.7,17.6,9.3,6.5,NaN, NaN,20.0,330.5,329.0,1152663740,1152663740,2,8.0,001340,001340,330.5,30.357440,-123.962803,9.31,NaN,NaN,18.788, NaN,NaN,NaN, NaN, NaN
20060712,002250,433350,30.358598,-123.963605,25.9,18.782,33.192,44.526,667.91,0.0,1.122,18.548, NaN, NaN,23.695,   NaN,17.89,1015.67,83.78,17.89,29.5,26.2,13.2,10.2,15.7,17.7,9.3,6.3,NaN, NaN,20.0,332.0,325.1,1152663770,1152663770,2,9.0,001370,001370,332.2,30.358513,-123.963583,9.23,NaN,NaN,18.787, NaN,NaN,NaN, NaN, NaN
20060712,002320,433379,30.359698,-123.964341,25.9,18.784,33.187,44.521,676.21,0.0,1.159,18.547, NaN, NaN,23.690,   NaN,17.84,1015.38,83.45,17.84,29.4,25.9,12.9,10.5,15.9,15.8,9.2,6.6,NaN, NaN,21.0,331.4,328.4,1152663800,1152663800,2,9.2,001400,001400,331.4,30.359612,-123.964318,9.08,NaN,NaN,18.789, NaN,NaN,NaN, NaN, NaN
20060712,002350,433409,30.360793,-123.965126,26.4,18.779,33.189,44.520,702.99,0.0,1.178,18.544, NaN, NaN,23.693,   NaN,17.83,1015.42,83.31,17.82,30.0,26.8,12.7,10.2,17.4,18.3,8.9,6.4,NaN, NaN,20.0,331.7,328.0,1152663830,1152663830,2,8.6,001430,001430,331.5,30.360710,-123.965100,9.53,NaN,NaN,18.784, NaN,NaN,NaN, NaN, NaN
20060712,002420,433439,30.361878,-123.965890,25.9,18.775,33.178,44.503,733.94,0.0,1.122,18.543, NaN, NaN,23.686,   NaN,17.88,1015.40,83.24,17.87,30.0,28.0,13.2,10.3,16.1,19.5,9.5,6.6,NaN, NaN,20.0,331.7,327.3,1152663860,1152663860,2,8.8,001460,001460,331.9,30.361797,-123.965866,9.24,NaN,NaN,18.780, NaN,NaN,NaN, NaN, NaN
20060712,002450,433470,30.362967,-123.966643,26.3,18.774,33.188,44.514,754.53,0.0,1.122,18.542, NaN, NaN,23.694,   NaN,17.85,1015.52,83.25,17.86,29.4,27.8,14.2,11.2,14.3,17.6,10.3,7.4,NaN, NaN,20.0,331.7,330.8,1152663890,1152663890,2,9.5,001490,001490,331.5,30.362920,-123.966645,9.52,NaN,NaN,18.779, NaN,NaN,NaN, NaN, NaN
20060712,002520,433500,30.364138,-123.967461,26.3,18.770,33.184,44.504,748.57,0.0,1.122,18.540, NaN, NaN,23.691,   NaN,17.80,1015.51,82.82,17.80,29.4,26.4,14.1,12.0,15.1,14.4,10.1,8.0,NaN, NaN,21.0,332.7,329.1,1152663920,1152663920,2,9.7,001520,001520,332.2,30.364053,-123.967441,9.51,NaN,NaN,18.775, NaN,NaN,NaN, NaN, NaN
20060712,002550,433529,30.365258,-123.968231,26.4,18.768,33.183,44.501,743.96,0.0,1.103,18.538, NaN, NaN,23.691,   NaN,17.83,1015.32,82.79,17.83,28.3,25.2,13.6,12.1,14.4,12.4,9.6,8.0,NaN, NaN,21.0,331.4,331.9,1152663950,1152663949,2,8.4,001550,001549,331.2,30.365135,-123.968185,9.58,NaN,NaN,18.773, NaN,NaN,NaN, NaN, NaN
20060712,002620,433559,30.366393,-123.969008,25.9,18.769,33.185,44.504,761.76,0.0,1.103,18.538, NaN, NaN,23.692,   NaN,17.84,1015.80,82.94,17.84,26.5,24.3,13.6,11.5,11.8,12.2,9.6,7.4,NaN, NaN,22.0,332.7,327.2,1152663980,1152663980,2,9.6,001580,001580,333.0,30.366297,-123.968996,9.45,NaN,NaN,18.774, NaN,NaN,NaN, NaN, NaN
20060712,002650,433589,30.367460,-123.969756,26.4,18.771,33.189,44.512,788.38,0.0,1.103,18.538, NaN, NaN,23.695,   NaN,17.89,1015.41,83.17,17.90,24.1,22.4,13.3,11.5,8.4,8.9,9.2,7.3,NaN, NaN,22.0,331.5,329.0,1152664010,1152664009,2,8.5,001610,001609,330.9,30.367340,-123.969718,9.25,NaN,NaN,18.776, NaN,NaN,NaN, NaN, NaN
20060712,002720,433619,30.368582,-123.970503,26.3,18.770,33.188,44.510,809.66,0.0,1.103,18.537, NaN, NaN,23.695,   NaN,17.91,1015.53,83.31,17.91,22.2,19.9,13.6,12.1,5.8,4.3,9.4,7.9,NaN, NaN,22.0,335.9,331.6,1152664040,1152664040,2,9.3,001640,001640,335.9,30.368495,-123.970495,9.33,NaN,NaN,18.775, NaN,NaN,NaN, NaN, NaN
20060712,002750,433650,30.369730,-123.971195,26.4,18.769,33.184,44.504,816.76,0.0,1.103,18.538, NaN, NaN,23.692,   NaN,17.85,1015.42,82.85,17.84,19.7,17.2,14.4,13.1,3.1,0.7,10.1,8.7,NaN, NaN,22.0,334.4,334.7,1152664070,1152664070,2,9.0,001670,001670,334.4,30.369652,-123.971183,9.65,NaN,NaN,18.774, NaN,NaN,NaN, NaN, NaN
20060712,002820,433680,30.370897,-123.971918,26.2,18.767,33.188,44.508,805.33,0.0,1.103,18.535, NaN, NaN,23.696,   NaN,17.80,1015.39,82.30,17.80,20.4,17.3,14.8,13.7,4.7,1.5,10.5,9.2,NaN, NaN,22.0,335.7,334.8,1152664100,1152664100,2,9.2,001700,001700,335.7,30.370817,-123.971908,9.57,NaN,NaN,18.772, NaN,NaN,NaN, NaN, NaN
20060712,002850,433709,30.372067,-123.972640,26.5,18.767,33.190,44.509,782.44,0.0,1.084,18.533, NaN, NaN,23.697,   NaN,17.85,1015.50,82.02,17.85,24.1,20.6,15.0,13.7,9.6,6.1,10.8,9.3,NaN, NaN,21.0,334.0,329.7,1152664130,1152664130,2,9.2,001730,001730,334.0,30.371983,-123.972625,9.60,NaN,NaN,18.772, NaN,NaN,NaN, NaN, NaN
20060712,002920,433739,30.373228,-123.973335,26.0,18.767,33.188,44.508,764.42,0.0,1.084,18.533, NaN, NaN,23.696,   NaN,17.81,1015.52,81.60,17.81,24.4,21.8,14.4,12.9,10.9,9.1,10.2,8.6,NaN, NaN,22.0,335.9,333.1,1152664160,1152664160,2,9.5,001760,001760,335.9,30.373145,-123.973328,9.48,NaN,NaN,18.772, NaN,NaN,NaN, NaN, NaN
20060712,002950,433769,30.374398,-123.974050,26.0,18.763,33.192,44.508,753.85,0.0,1.084,18.532, NaN, NaN,23.699,   NaN,17.82,1015.51,81.62,17.82,24.1,21.5,13.8,12.2,11.2,9.8,9.6,7.9,NaN, NaN,22.0,335.4,327.6,1152664190,1152664190,2,9.7,001790,001790,335.4,30.374313,-123.974036,9.79,NaN,NaN,18.768, NaN,NaN,NaN, NaN, NaN
20060712,003020,433799,30.375560,-123.974761,26.2,18.763,33.189,44.504,744.93,0.0,1.066,18.532, NaN, NaN,23.697,   NaN,17.85,1015.47,81.67,17.85,25.2,22.1,13.9,12.4,12.5,10.1,9.7,8.1,NaN, NaN,22.0,334.7,329.6,1152664220,1152664220,2,10.1,001820,001820,334.7,30.375478,-123.974748,9.68,NaN,NaN,18.768, NaN,NaN,NaN, NaN, NaN
20060712,003050,433830,30.376728,-123.975488,26.4,18.764,33.193,44.510,745.60,0.0,1.103,18.532, NaN, NaN,23.700,   NaN,17.80,1015.53,81.38,17.80,25.7,22.8,14.4,12.9,12.3,10.3,10.3,8.6,NaN, NaN,22.0,334.9,330.0,1152664250,1152664250,2,9.6,001850,001850,334.9,30.376638,-123.975476,9.57,NaN,NaN,18.769, NaN,NaN,NaN, NaN, NaN
20060712,003120,433859,30.377897,-123.976210,26.0,18.763,33.192,44.508,754.11,0.0,1.103,18.531, NaN, NaN,23.700,   NaN,17.82,1015.49,81.39,17.82,26.5,23.6,14.5,12.7,13.4,11.9,10.4,8.4,NaN, NaN,22.0,335.0,329.5,1152664280,1152664280,2,9.5,001880,001880,334.9,30.377813,-123.976203,9.73,NaN,NaN,18.768, NaN,NaN,NaN, NaN, NaN
20060712,003150,433889,30.379058,-123.976915,25.9,18.761,33.192,44.505,774.55,0.0,1.103,18.528, NaN, NaN,23.700,   NaN,17.85,1015.52,81.63,17.86,28.0,25.4,14.3,12.2,16.1,15.8,10.3,8.1,NaN, NaN,22.0,335.7,335.2,1152664310,1152664310,2,9.3,001910,001910,335.5,30.378980,-123.976906,9.70,NaN,NaN,18.766, NaN,NaN,NaN, NaN, NaN
20060712,003220,433919,30.380208,-123.977643,26.2,18.763,33.193,44.509,810.29,0.0,1.084,18.529, NaN, NaN,23.700,   NaN,17.86,1015.39,81.93,17.86,29.6,26.6,13.6,11.2,19.1,19.7,9.7,7.2,NaN, NaN,22.0,335.1,331.2,1152664340,1152664340,2,9.5,001940,001940,335.6,30.380123,-123.977633,9.52,NaN,NaN,18.768, NaN,NaN,NaN, NaN, NaN
20060712,003250,433949,30.381358,-123.978353,26.2,18.762,33.195,44.510,852.19,0.0,1.103,18.526, NaN, NaN,23.702,   NaN,17.96,1015.36,82.53,17.95,27.9,25.0,13.0,10.8,17.5,18.0,9.1,6.8,NaN, NaN,23.0,334.7,328.3,1152664370,1152664370,2,9.7,001970,001970,335.2,30.381272,-123.978346,9.87,NaN,NaN,18.767, NaN,NaN,NaN, NaN, NaN
20060712,003320,433980,30.382512,-123.979073,26.1,18.761,33.196,44.511,880.05,0.0,1.103,18.531, NaN, NaN,23.703,   NaN,17.89,1015.38,82.49,17.89,24.6,22.2,14.0,12.3,11.7,10.9,9.9,8.0,NaN, NaN,22.0,334.2,330.9,1152664400,1152664400,2,9.6,002000,002000,334.5,30.382425,-123.979061,9.48,NaN,NaN,18.766, NaN,NaN,NaN, NaN, NaN
20060712,003350,434010,30.383700,-123.979775,26.6,18.761,33.193,44.508,888.84,0.0,1.084,18.531, NaN, NaN,23.701,   NaN,17.91,1015.54,82.37,17.91,21.9,19.8,14.9,13.3,7.0,5.7,10.5,8.9,NaN, NaN,22.0,336.4,340.1,1152664430,1152664430,2,9.9,002030,002030,335.7,30.383615,-123.979771,10.26,NaN,NaN,18.766, NaN,NaN,NaN, NaN, NaN
20060712,003420,434039,30.384812,-123.980478,26.2,18.760,33.195,44.509,902.37,0.0,1.084,18.532, NaN, NaN,23.703,   NaN,17.81,1015.44,81.37,17.82,19.6,17.2,15.6,14.1,2.9,0.9,11.2,9.6,NaN, NaN,22.0,334.2,333.2,1152664460,1152664459,2,8.8,002060,002059,334.4,30.384685,-123.980440,NaN,NaN,NaN,18.765, NaN,NaN,NaN, NaN, NaN
20060712,003450,434069,30.385917,-123.981176,26.3,18.761,33.195,44.510,890.02,0.0,1.084,18.532, NaN, NaN,23.702,   NaN,17.80,1015.49,80.48,17.80,18.3,16.2,15.2,14.1,0.7,358.6,10.8,9.7,NaN, NaN,22.0,335.6,334.8,1152664490,1152664490,2,9.5,002090,002090,336.0,30.385833,-123.981166,9.48,NaN,NaN,18.766, NaN,NaN,NaN, NaN, NaN
20060712,003520,434099,30.387042,-123.981863,26.3,18.764,33.196,44.513,865.53,0.0,1.084,18.532, NaN, NaN,23.702,   NaN,17.79,1015.61,79.90,17.78,18.2,16.8,13.9,13.1,1.9,0.6,9.6,8.7,NaN, NaN,22.0,335.0,335.1,1152664520,1152664520,2,9.7,002120,002120,335.2,30.386962,-123.981855,9.39,NaN,NaN,18.769, NaN,NaN,NaN, NaN, NaN
20060712,003550,434129,30.388208,-123.982586,26.2,18.763,33.195,44.512,854.16,0.0,1.103,18.533, NaN, NaN,23.702,   NaN,17.84,1015.39,80.00,17.84,18.8,17.0,13.4,12.3,3.8,2.3,9.0,7.9,NaN, NaN,23.0,335.7,331.6,1152664550,1152664550,2,9.2,002150,002150,336.0,30.388118,-123.982583,9.44,NaN,NaN,18.768, NaN,NaN,NaN, NaN, NaN
20060712,003620,434160,30.389408,-123.983261,26.3,18.765,33.196,44.515,831.07,0.0,1.066,18.533, NaN, NaN,23.702,   NaN,17.90,1015.51,80.50,17.88,18.0,15.9,13.4,12.3,3.8,1.9,8.9,7.7,NaN, NaN,23.0,338.7,338.2,1152664580,1152664580,2,9.5,002180,002180,338.4,30.389332,-123.983261,9.79,NaN,NaN,18.770, NaN,NaN,NaN, NaN, NaN
20060712,003650,434190,30.390595,-123.983905,25.9,18.762,33.200,44.516,817.13,0.0,1.066,18.532, NaN, NaN,23.706,   NaN,17.95,1015.50,81.30,17.94,20.0,17.1,13.3,12.3,8.6,5.3,8.9,7.7,NaN, NaN,23.0,336.9,333.5,1152664610,1152664610,2,9.4,002210,002210,337.4,30.390527,-123.983896,9.56,NaN,NaN,18.767, NaN,NaN,NaN, NaN, NaN